AA7F Weather Reports


time (UTC)temp
C
wind
direction
speed
KPH
gust
KPH
rain 1hr
cm
rain 24hr
cm
rain mn
cm
humidity
%
barometer
mb
20260505122237 9 79 0.0 1.6 0.00 0.00 0.00 85 1010.0
20260505121734 9 77 0.0 3.2 0.00 0.00 0.00 84 1010.0
20260505121231 9 88 0.0 0.0 0.00 0.00 0.00 87 1009.9
20260505120727 8 62 0.0 0.0 0.00 0.00 0.00 89 1009.8
20260505120223 8 79 0.0 1.6 0.00 0.00 0.00 89 1010.0
20260505115721 8 70 0.0 0.0 0.00 0.00 0.00 89 1009.9
20260505115220 9 86 0.0 0.0 0.00 0.00 0.00 88 1010.0
20260505114717 9 84 0.0 0.0 0.00 0.00 0.00 88 1010.1
20260505114213 9 95 0.0 1.6 0.00 0.00 0.00 88 1009.9
20260505113709 9 76 0.0 0.0 0.00 0.00 0.00 88 1009.8
20260505113206 9 80 0.0 0.0 0.00 0.00 0.00 88 1010.0
20260505112703 9 87 3.2 4.8 0.00 0.00 0.00 88 1010.1
20260505112200 9 84 0.0 0.0 0.00 0.00 0.00 88 1009.8
20260505111700 10 97 0.0 3.2 0.00 0.00 0.00 87 1009.8
20260505111156 10 122 4.8 8.0 0.00 0.00 0.00 86 1009.7
20260505110652 10 80 4.8 11.3 0.00 0.00 0.00 82 1009.7
20260505110150 12 76 4.8 9.7 0.00 0.00 0.00 75 1009.3
20260505102125 13 89 8.0 16.1 0.00 0.00 0.00 72 1008.9
20260505101624 13 71 14.5 16.1 0.00 0.00 0.00 72 1009.1
20260505101120 12 93 8.0 16.1 0.00 0.00 0.00 73 1008.9
20260505100616 12 110 0.0 16.1 0.00 0.00 0.00 74 1008.9
20260505100113 13 50 8.0 16.1 0.00 0.00 0.00 72 1008.9
20260505095609 13 73 12.9 16.1 0.00 0.00 0.00 69 1009.0
20260505095106 13 100 8.0 14.5 0.00 0.00 0.00 70 1008.8
20260505094603 13 54 9.7 16.1 0.00 0.00 0.00 68 1008.6
20260505094058 14 77 11.3 16.1 0.00 0.00 0.00 68 1008.5
20260505093555 13 75 11.3 14.5 0.00 0.00 0.00 73 1008.5
20260505093053 13 46 9.7 16.1 0.00 0.00 0.00 71 1008.5
20260505092550 14 52 11.3 16.1 0.00 0.00 0.00 68 1008.4
20260505092048 15 77 11.3 14.5 0.00 0.00 0.00 68 1008.5
20260505091544 15 66 9.7 16.1 0.00 0.00 0.00 65 1008.6
20260505091043 15 80 11.3 16.1 0.00 0.00 0.00 63 1008.4
20260505090541 15 69 11.3 17.7 0.00 0.00 0.00 65 1008.5
20260505090038 15 98 9.7 12.9 0.00 0.00 0.00 67 1008.5
20260505085536 15 111 9.7 14.5 0.00 0.00 0.00 66 1008.4
20260505085034 15 98 12.9 20.9 0.00 0.00 0.00 69 1008.7
20260505084532 13 115 3.2 11.3 0.00 0.00 0.00 70 1008.4
20260505084030 14 87 8.0 14.5 0.00 0.00 0.00 77 1008.2
20260505083526 15 115 4.8 11.3 0.00 0.00 0.00 67 1008.7
20260505083023 14 59 11.3 17.7 0.00 0.00 0.00 70 1008.4
20260505082519 15 82 4.8 12.9 0.00 0.00 0.00 71 1008.4
20260505082016 12 92 9.7 12.9 0.00 0.00 0.00 81 1008.2
20260505081512 12 102 9.7 12.9 0.00 0.00 0.00 83 1008.5
20260505081009 12 99 8.0 12.9 0.00 0.00 0.00 82 1008.3
20260505080506 13 100 8.0 12.9 0.00 0.00 0.00 80 1008.3
20260505080002 13 91 8.0 11.3 0.00 0.00 0.00 79 1008.3
20260505075458 15 54 4.8 9.7 0.00 0.00 0.00 71 1008.2
20260505074955 13 114 8.0 9.7 0.00 0.00 0.00 69 1008.1
20260505074453 16 74 6.4 9.7 0.00 0.00 0.00 70 1008.1
20260505073950 16 89 4.8 12.9 0.00 0.00 0.00 62 1008.0
20260505073447 15 83 6.4 12.9 0.00 0.00 0.00 71 1007.9
20260505072944 15 65 9.7 16.1 0.00 0.00 0.00 74 1008.2
20260505072440 15 61 12.9 17.7 0.00 0.00 0.00 72 1008.0
20260505071937 16 87 9.7 16.1 0.00 0.00 0.00 67 1008.1
20260505071432 16 86 9.7 14.5 0.00 0.00 0.00 67 1008.1
20260505070931 16 57 12.9 16.1 0.00 0.00 0.00 63 1007.9
20260505070427 17 85 9.7 14.5 0.00 0.00 0.00 61 1007.9
20260505065923 17 99 8.0 12.9 0.00 0.00 0.00 58 1008.1
20260505065419 17 84 6.4 14.5 0.00 0.00 0.00 59 1008.0
20260505064916 17 66 1.6 12.9 0.00 0.00 0.00 61 1007.9
20260505064414 16 105 6.4 12.9 0.00 0.00 0.00 62 1007.9
20260505063912 16 78 0.0 4.8 0.00 0.00 0.00 62 1007.7
20260505063408 16 82 0.0 0.0 0.00 0.00 0.00 61 1007.9
20260505062904 17 74 0.0 8.0 0.00 0.00 0.00 60 1007.7
20260505062402 17 89 0.0 9.7 0.00 0.00 0.00 59 1007.6
20260505061858 17 83 0.0 3.2 0.00 0.00 0.00 57 1007.6
20260505061357 17 57 0.0 4.8 0.00 0.00 0.00 57 1007.7
20260505060854 17 61 4.8 11.3 0.00 0.00 0.00 60 1007.5
20260505060350 17 70 8.0 11.3 0.00 0.00 0.00 62 1007.5
20260505055846 17 67 1.6 8.0 0.00 0.00 0.00 61 1007.6
20260505055342 17 80 6.4 9.7 0.00 0.00 0.00 64 1007.4
20260505054840 17 68 3.2 8.0 0.00 0.00 0.00 63 1007.3
20260505054337 17 65 4.8 12.9 0.00 0.00 0.00 62 1007.3
20260505053835 17 80 6.4 12.9 0.00 0.00 0.00 60 1007.3
20260505053332 18 40 0.0 8.0 0.00 0.00 0.00 58 1007.4
20260505052828 18 56 4.8 16.1 0.00 0.00 0.00 57 1007.2
20260505052325 18 54 12.9 20.9 0.00 0.00 0.00 56 1007.2
20260505051823 18 56 16.1 22.5 0.00 0.00 0.00 55 1007.0
20260505051320 18 63 9.7 17.7 0.00 0.00 0.00 56 1007.0
20260505050818 18 64 11.3 17.7 0.00 0.00 0.00 57 1007.1
20260505050317 18 77 9.7 17.7 0.00 0.00 0.00 56 1007.2
20260505041746 20 60 8.0 14.5 0.00 0.00 0.00 54 1006.2
20260505041243 20 67 1.6 8.0 0.00 0.00 0.00 53 1006.2
20260505040741 20 80 6.4 16.1 0.00 0.00 0.00 50 1006.2
20260505040238 20 65 6.4 11.3 0.00 0.00 0.00 51 1006.2
20260505035735 21 62 1.6 8.0 0.00 0.00 0.00 51 1006.1
20260505035231 21 82 1.6 11.3 0.00 0.00 0.00 48 1006.1
20260505034728 21 75 6.4 11.3 0.00 0.00 0.00 48 1006.0
20260505034225 21 68 0.0 0.0 0.00 0.00 0.00 49 1006.1
20260505033721 21 59 4.8 11.3 0.00 0.00 0.00 46 1005.8
20260505033219 21 68 0.0 8.0 0.00 0.00 0.00 46 1005.7
20260505032717 21 56 0.0 0.0 0.00 0.00 0.00 48 1005.6
20260505032212 22 72 0.0 1.6 0.00 0.00 0.00 46 1005.4
20260505031710 22 51 4.8 12.9 0.00 0.00 0.00 42 1005.3
20260505031206 22 49 1.6 12.9 0.00 0.00 0.00 42 1005.3
20260505030703 21 20 0.0 3.2 0.00 0.00 0.00 43 1005.2
20260505030159 21 346 0.0 1.6 0.00 0.00 0.00 42 1005.0
20260505025655 22 328 1.6 3.2 0.00 0.00 0.00 42 1005.0
20260505025154 22 303 0.0 1.6 0.00 0.00 0.00 40 1004.7
20260505024651 22 314 1.6 3.2 0.00 0.00 0.00 38 1004.5
20260505024148 22 308 0.0 3.2 0.00 0.00 0.00 39 1004.7
20260505023646 23 300 0.0 3.2 0.00 0.00 0.00 39 1004.7
20260505023143 23 316 0.0 4.8 0.00 0.00 0.00 40 1004.5
20260505022640 23 300 1.6 3.2 0.00 0.00 0.00 39 1004.5
20260505022137 23 301 0.0 3.2 0.00 0.00 0.00 41 1004.7
20260505021634 24 337 3.2 8.0 0.00 0.00 0.00 39 1004.4
20260505021130 24 307 0.0 9.7 0.00 0.00 0.00 36 1004.7
20260505020626 25 288 0.0 4.8 0.00 0.00 0.00 40 1004.4
20260505020122 25 297 8.0 14.5 0.00 0.00 0.00 35 1004.4
20260505015620 25 348 4.8 14.5 0.00 0.00 0.00 35 1004.5
20260505015116 25 251 4.8 12.9 0.00 0.00 0.00 37 1004.4
20260505014613 25 298 3.2 12.9 0.00 0.00 0.00 38 1004.4
20260505014110 25 296 0.0 9.7 0.00 0.00 0.00 37 1004.2
20260505013607 25 255 0.0 11.3 0.00 0.00 0.00 37 1004.4
20260505013104 25 293 9.7 14.5 0.00 0.00 0.00 36 1004.2
20260505012602 25 276 11.3 16.1 0.00 0.00 0.00 37 1004.1
20260505012059 25 271 9.7 17.7 0.00 0.00 0.00 37 1004.2
20260505011554 26 269 9.7 14.5 0.00 0.00 0.00 38 1004.4
20260505011052 26 270 8.0 14.5 0.00 0.00 0.00 40 1004.3
20260505010547 26 236 11.3 20.9 0.00 0.00 0.00 37 1004.2
20260505010044 26 250 14.5 17.7 0.00 0.00 0.00 36 1004.3
20260505005540 26 249 8.0 14.5 0.00 0.00 0.00 37 1004.2
20260505005038 26 265 14.5 22.5 0.00 0.00 0.00 35 1004.0
20260505004535 26 261 9.7 20.9 0.00 0.00 0.00 36 1004.4
20260505004032 26 250 14.5 20.9 0.00 0.00 0.00 35 1004.3
20260505003529 26 255 9.7 22.5 0.00 0.00 0.00 36 1004.3
20260505003026 26 205 12.9 24.1 0.00 0.00 0.00 36 1004.4
20260505002521 26 276 14.5 24.1 0.00 0.00 0.00 34 1004.2
20260505002021 26 289 14.5 22.5 0.00 0.00 0.00 34 1004.3
20260505001517 26 244 16.1 24.1 0.00 0.00 0.00 34 1004.4
20260505001014 26 274 17.7 27.4 0.00 0.00 0.00 35 1004.8
20260505000512 26 270 17.7 25.7 0.00 0.00 0.00 35 1004.4
20260505000009 26 270 19.3 29.0 0.00 0.00 0.00 35 1004.5
20260504235506 26 248 9.7 17.7 0.00 0.00 0.00 39 1004.7
20260504235002 26 263 8.0 20.9 0.00 0.00 0.00 38 1004.5
20260504234500 26 276 14.5 22.5 0.00 0.00 0.00 38 1004.5
20260504233956 26 239 4.8 12.9 0.00 0.00 0.00 40 1005.0
20260504233451 26 263 3.2 16.1 0.00 0.00 0.00 40 1004.9
20260504232949 26 263 12.9 16.1 0.00 0.00 0.00 39 1004.9
20260504232446 26 261 16.1 20.9 0.00 0.00 0.00 41 1004.7
20260504231943 26 240 3.2 16.1 0.00 0.00 0.00 40 1004.9
20260504231439 26 263 4.8 9.7 0.00 0.00 0.00 39 1004.9
20260504230935 26 298 4.8 11.3 0.00 0.00 0.00 41 1005.0
20260504230432 26 272 0.0 3.2 0.00 0.00 0.00 42 1005.1
20260504225932 26 254 3.2 12.9 0.00 0.00 0.00 41 1005.1
20260504225428 26 270 4.8 16.1 0.00 0.00 0.00 41 1005.2
20260504224925 26 216 0.0 8.0 0.00 0.00 0.00 43 1005.1
20260504224421 25 234 4.8 12.9 0.00 0.00 0.00 41 1005.2
20260504223919 25 250 3.2 8.0 0.00 0.00 0.00 42 1005.3
20260504223414 25 254 14.5 16.1 0.00 0.00 0.00 41 1005.4
20260504222910 26 277 3.2 8.0 0.00 0.00 0.00 42 1005.4
20260504222408 25 292 4.8 16.1 0.00 0.00 0.00 40 1005.4
20260504221906 25 209 12.9 16.1 0.00 0.00 0.00 42 1005.4
20260504221403 25 273 0.0 4.8 0.00 0.00 0.00 43 1005.9
20260504220859 25 287 4.8 16.1 0.00 0.00 0.00 41 1005.7
20260504220356 25 261 8.0 17.7 0.00 0.00 0.00 41 1005.7
20260504215854 25 197 8.0 11.3 0.00 0.00 0.00 41 1005.7
20260504215349 25 262 4.8 16.1 0.00 0.00 0.00 43 1005.7
20260504214846 25 244 0.0 14.5 0.00 0.00 0.00 45 1005.9
20260504214343 24 243 0.0 14.5 0.00 0.00 0.00 46 1006.1
20260504213840 25 293 1.6 12.9 0.00 0.00 0.00 43 1006.2
20260504213335 25 263 0.0 4.8 0.00 0.00 0.00 44 1006.0
20260504212833 25 288 1.6 8.0 0.00 0.00 0.00 47 1006.1
20260504212329 25 272 0.0 1.6 0.00 0.00 0.00 44 1006.2
20260504211827 25 234 1.6 3.2 0.00 0.00 0.00 46 1006.2
20260504211322 25 242 3.2 9.7 0.00 0.00 0.00 46 1006.3
20260504210820 24 266 0.0 11.3 0.00 0.00 0.00 45 1006.4
20260504210317 24 230 1.6 8.0 0.00 0.00 0.00 47 1006.5
20260504205814 24 288 4.8 11.3 0.00 0.00 0.00 45 1006.3
20260504205312 23 291 4.8 11.3 0.00 0.00 0.00 44 1006.2
20260504204810 24 285 1.6 8.0 0.00 0.00 0.00 43 1006.4
20260504204308 24 272 4.8 8.0 0.00 0.00 0.00 43 1006.3
20260504203807 23 263 1.6 9.7 0.00 0.00 0.00 43 1006.6
20260504203304 23 242 6.4 11.3 0.00 0.00 0.00 47 1006.5
20260504202758 23 257 1.6 12.9 0.00 0.00 0.00 44 1006.6
20260504202256 23 232 6.4 9.7 0.00 0.00 0.00 42 1006.7
20260504201753 23 261 4.8 9.7 0.00 0.00 0.00 42 1006.8
20260504201250 23 277 0.0 4.8 0.00 0.00 0.00 43 1006.7
20260504200748 23 266 1.6 4.8 0.00 0.00 0.00 43 1006.8
20260504200243 23 273 0.0 1.6 0.00 0.00 0.00 46 1006.8
20260504195740 22 235 0.0 9.7 0.00 0.00 0.00 47 1007.0
20260504195236 22 225 0.0 3.2 0.00 0.00 0.00 44 1006.8
20260504194734 22 286 0.0 11.3 0.00 0.00 0.00 45 1007.0
20260504194229 23 230 3.2 8.0 0.00 0.00 0.00 43 1007.1
20260504193726 22 260 1.6 11.3 0.00 0.00 0.00 44 1007.2
20260504193224 22 224 3.2 8.0 0.00 0.00 0.00 41 1007.2
20260504192722 22 276 0.0 9.7 0.00 0.00 0.00 45 1007.4
20260504192220 22 282 4.8 8.0 0.00 0.00 0.00 43 1007.2
20260504191718 22 249 8.0 11.3 0.00 0.00 0.00 44 1007.2
20260504191215 22 218 0.0 12.9 0.00 0.00 0.00 45 1007.2
20260504190710 22 212 4.8 14.5 0.00 0.00 0.00 42 1007.4
20260504190206 22 242 0.0 4.8 0.00 0.00 0.00 41 1007.6
20260504185703 22 249 1.6 9.7 0.00 0.00 0.00 44 1007.6
20260504185159 22 253 0.0 0.0 0.00 0.00 0.00 47 1007.5
20260504184656 21 279 0.0 0.0 0.00 0.00 0.00 49 1007.6
20260504184151 22 261 0.0 11.3 0.00 0.00 0.00 45 1007.5
20260504183648 22 243 0.0 0.0 0.00 0.00 0.00 47 1007.4
20260504183145 21 65 0.0 0.0 0.00 0.00 0.00 53 1007.5
20260504182643 21 194 0.0 0.0 0.00 0.00 0.00 48 1007.6
20260504182140 22 157 0.0 0.0 0.00 0.00 0.00 45 1007.8
20260504181638 22 192 0.0 0.0 0.00 0.00 0.00 48 1007.7
20260504181135 21 184 0.0 0.0 0.00 0.00 0.00 50 1007.8
20260504180634 21 92 0.0 0.0 0.00 0.00 0.00 55 1007.8
20260504180132 21 171 0.0 0.0 0.00 0.00 0.00 52 1007.8
20260504175629 20 67 0.0 0.0 0.00 0.00 0.00 53 1007.6
20260504175126 20 76 0.0 3.2 0.00 0.00 0.00 53 1007.7
20260504174624 20 76 0.0 1.6 0.00 0.00 0.00 57 1007.9
20260504174120 20 147 0.0 8.0 0.00 0.00 0.00 56 1007.9
20260504173617 20 138 0.0 3.2 0.00 0.00 0.00 55 1007.9
20260504173115 19 126 0.0 12.9 0.00 0.00 0.00 54 1008.1
20260504172611 18 119 1.6 4.8 0.00 0.00 0.00 53 1008.0
20260504172108 18 78 1.6 11.3 0.00 0.00 0.00 55 1007.8
20260504171604 18 83 1.6 8.0 0.00 0.00 0.00 55 1008.1
20260504171101 18 85 1.6 9.7 0.00 0.00 0.00 52 1008.2
20260504170557 18 120 0.0 12.9 0.00 0.00 0.00 57 1008.1
20260504150941 12 75 12.9 17.7 0.00 0.00 0.00 69 1008.5
20260504150438 12 103 11.3 16.1 0.00 0.00 0.00 70 1008.7
20260504140904 10 68 17.7 22.5 0.00 0.00 0.00 78 1008.4
20260504140400 10 86 16.1 22.5 0.00 0.00 0.00 78 1008.6
20260504130325 9 85 8.0 17.7 0.00 0.00 0.00 78 1008.0